Stations météo

réclame
Mon MeteoGroup
Murcia/Alcantarilla, Espagne (8429): Température de l'air & dewpoint: 08.12.2018 16:00:00 - 14.12.2018 16:00:00 (CET)Murcia/Alcantarilla, Espagne (8429): Vitesse du vent: 08.12.2018 16:00:00 - 14.12.2018 16:00:00 (CET)Murcia/Alcantarilla, Espagne (8429): Direction du vent: 08.12.2018 16:00:00 - 14.12.2018 16:00:00 (CET)Murcia/Alcantarilla, Espagne (8429): reduced air pressure: 08.12.2018 16:00:00 - 14.12.2018 16:00:00 (CET)Murcia/Alcantarilla, Espagne (8429): visibility: 08.12.2018 16:00:00 - 14.12.2018 16:00:00 (CET)
Date & Time tt [°C] td [°C] ff [km/h] ff [knt] dd ppp [hPa] vv [km]
14.12.2018 16:00:00 - - - - - - -
14.12.2018 15:00:00 - - - - - - -
14.12.2018 14:00:00 - - - - - - -
14.12.2018 13:00:00 15,0 1,9 41 22 NW 1019,5 60
14.12.2018 12:00:00 - - - - - - -
14.12.2018 11:00:00 - - - - - - -
14.12.2018 10:00:00 12,2 2,1 24 13 NW 1019,4 60
14.12.2018 09:00:00 - - - - - - -
14.12.2018 08:00:00 - - - - - - -
14.12.2018 07:00:00 11,2 1,2 31 17 NW 1015,2 60
14.12.2018 06:00:00 - - - - - - -
14.12.2018 05:00:00 - - - - - - -
14.12.2018 04:00:00 - - - - - - -
14.12.2018 03:00:00 - - - - - - -
14.12.2018 02:00:00 - - - - - - -
14.12.2018 01:00:00 - - - - - - -
14.12.2018 00:00:00 - - - - - - -
13.12.2018 23:00:00 - - - - - - -
13.12.2018 22:00:00 - - - - - - -
13.12.2018 21:00:00 - - - - - - -
13.12.2018 20:00:00 - - - - - - -
13.12.2018 19:00:00 10,2 5,0 34 18 NNW 1010,1 50
13.12.2018 18:00:00 - - - - - - -
13.12.2018 17:00:00 - - - - - - -
13.12.2018 16:00:00 14,6 6,2 13 7 WNW 1007,0 50
13.12.2018 15:00:00 - - - - - - -
13.12.2018 14:00:00 - - - - - - -
13.12.2018 13:00:00 13,1 10,3 9 5 N 1008,5 12
13.12.2018 12:00:00 - - - - - - -
13.12.2018 11:00:00 - - - - - - -
13.12.2018 10:00:00 10,0 9,2 5 3 SW 1011,9 12
13.12.2018 09:00:00 - - - - - - -
13.12.2018 08:00:00 - - - - - - -
13.12.2018 07:00:00 9,8 7,9 13 7 W 1013,7 20
13.12.2018 06:00:00 - - - - - - -
13.12.2018 05:00:00 - - - - - - -
13.12.2018 04:00:00 - - - - - - -
13.12.2018 03:00:00 - - - - - - -
13.12.2018 02:00:00 - - - - - - -
13.12.2018 01:00:00 - - - - - - -
13.12.2018 00:00:00 - - - - - - -
12.12.2018 23:00:00 - - - - - - -
12.12.2018 22:00:00 - - - - - - -
12.12.2018 21:00:00 - - - - - - -
12.12.2018 20:00:00 - - - - - - -
12.12.2018 19:00:00 13,2 10,2 8 4 SW 1017,8 10
12.12.2018 18:00:00 - - - - - - -
12.12.2018 17:00:00 - - - - - - -
12.12.2018 16:00:00 19,0 7,8 4 2 N 1017,8 10
12.12.2018 15:00:00 - - - - - - -
12.12.2018 14:00:00 - - - - - - -
12.12.2018 13:00:00 18,0 7,7 4 2 N 1020,3 10
12.12.2018 12:00:00 - - - - - - -
12.12.2018 11:00:00 - - - - - - -
12.12.2018 10:00:00 14,2 7,7 5 3 SW 1022,1 10
12.12.2018 09:00:00 - - - - - - -
12.12.2018 08:00:00 - - - - - - -
12.12.2018 07:00:00 9,2 6,6 8 4 SW 1021,3 10
12.12.2018 06:00:00 - - - - - - -
12.12.2018 05:00:00 - - - - - - -
12.12.2018 04:00:00 - - - - - - -
12.12.2018 03:00:00 - - - - - - -
12.12.2018 02:00:00 - - - - - - -
12.12.2018 01:00:00 - - - - - - -
12.12.2018 00:00:00 - - - - - - -
11.12.2018 23:00:00 - - - - - - -
11.12.2018 22:00:00 - - - - - - -
11.12.2018 21:00:00 - - - - - - -
11.12.2018 20:00:00 - - - - - - -
11.12.2018 19:00:00 12,7 10,9 9 5 SW 1021,9 20
11.12.2018 18:00:00 - - - - - - -
11.12.2018 17:00:00 - - - - - - -
11.12.2018 16:00:00 16,7 10,5 4 2 N 1021,4 20
11.12.2018 15:00:00 - - - - - - -
11.12.2018 14:00:00 - - - - - - -
11.12.2018 13:00:00 13,9 9,1 4 2 N 1023,8 12
11.12.2018 12:00:00 - - - - - - -
11.12.2018 11:00:00 - - - - - - -
11.12.2018 10:00:00 6,8 6,8 0 0 N 1025,3 5
11.12.2018 09:00:00 - - - - - - -
11.12.2018 08:00:00 - - - - - - -
11.12.2018 07:00:00 4,3 4,0 0 0 N 1025,3 12
11.12.2018 06:00:00 - - - - - - -
11.12.2018 05:00:00 - - - - - - -
11.12.2018 04:00:00 - - - - - - -
11.12.2018 03:00:00 - - - - - - -
11.12.2018 02:00:00 - - - - - - -
11.12.2018 01:00:00 - - - - - - -
11.12.2018 00:00:00 - - - - - - -
10.12.2018 23:00:00 - - - - - - -
10.12.2018 22:00:00 - - - - - - -
10.12.2018 21:00:00 - - - - - - -
10.12.2018 20:00:00 - - - - - - -
10.12.2018 19:00:00 15,0 11,6 5 3 ENE 1027,1 30
10.12.2018 18:00:00 - - - - - - -
10.12.2018 17:00:00 - - - - - - -
10.12.2018 16:00:00 18,6 12,1 2 1 N 1026,6 30
10.12.2018 15:00:00 - - - - - - -
10.12.2018 14:00:00 - - - - - - -
10.12.2018 13:00:00 17,0 10,6 5 3 E 1029,2 30
10.12.2018 12:00:00 - - - - - - -
10.12.2018 11:00:00 - - - - - - -
10.12.2018 10:00:00 11,2 5,5 4 2 N 1030,5 60
10.12.2018 09:00:00 - - - - - - -
10.12.2018 08:00:00 - - - - - - -
10.12.2018 07:00:00 9,8 2,2 4 2 N 1028,5 50
10.12.2018 06:00:00 - - - - - - -
10.12.2018 05:00:00 - - - - - - -
10.12.2018 04:00:00 - - - - - - -
10.12.2018 03:00:00 - - - - - - -
10.12.2018 02:00:00 - - - - - - -
10.12.2018 01:00:00 - - - - - - -
10.12.2018 00:00:00 - - - - - - -
09.12.2018 23:00:00 - - - - - - -
09.12.2018 22:00:00 - - - - - - -
09.12.2018 21:00:00 - - - - - - -
09.12.2018 20:00:00 - - - - - - -
09.12.2018 19:00:00 17,4 13,1 16 9 WSW 1026,8 50
09.12.2018 18:00:00 - - - - - - -
09.12.2018 17:00:00 - - - - - - -
09.12.2018 16:00:00 23,0 8,7 9 5 WSW 1025,9 50
09.12.2018 15:00:00 - - - - - - -
09.12.2018 14:00:00 - - - - - - -
09.12.2018 13:00:00 20,0 7,4 8 4 S 1028,1 50
09.12.2018 12:00:00 - - - - - - -
09.12.2018 11:00:00 - - - - - - -
09.12.2018 10:00:00 9,6 8,4 4 2 N 1029,8 50
09.12.2018 09:00:00 - - - - - - -
09.12.2018 08:00:00 - - - - - - -
09.12.2018 07:00:00 7,0 6,6 5 3 WSW 1030,0 50
09.12.2018 06:00:00 - - - - - - -
09.12.2018 05:00:00 - - - - - - -
09.12.2018 04:00:00 - - - - - - -
09.12.2018 03:00:00 - - - - - - -
09.12.2018 02:00:00 - - - - - - -
09.12.2018 01:00:00 - - - - - - -
09.12.2018 00:00:00 - - - - - - -
08.12.2018 23:00:00 - - - - - - -
08.12.2018 22:00:00 - - - - - - -
08.12.2018 21:00:00 - - - - - - -
08.12.2018 20:00:00 - - - - - - -
08.12.2018 19:00:00 15,0 11,6 5 3 ENE 1027,9 20
08.12.2018 18:00:00 - - - - - - -
08.12.2018 17:00:00 - - - - - - -
08.12.2018 16:00:00 20,2 6,2 9 5 N 1026,7 20

tt = Température de l'air
td = dewpoint
ff = Vitesse du vent
dd = Direction du vent
ppp = reduced air pressure
vv = visibility

stations d'obs. à proximité